Regional Weather Roundup
Issued by NWS Goodland, KS

Home | Current Version | Previous Version | Text Only | Print | Product List | Glossary On
Versions: 1 2 3 4 5 6 7 8 9 10 11 12 13 14 15 16 17 18 19 20 21 22 23 24 25 26 27 28 29 30 31 32 33 34 35 36 37 38 39 40 41 42 43 44 45 46 47 48 49 50
000
ASUS43 KGLD 271508
RWRGLD

GOODLAND FORECAST AREA HOURLY WEATHER ROUNDUP
NATIONAL WEATHER SERVICE GOODLAND KS
900 AM MDT WED AUG 27 2014

...OFFICIAL OBSERVATIONS...

CITY           SKY/WX    TMP DP  RH WIND       PRES   REMARKS
GOODLAND KS    CLOUDY    67  64  90 S15       30.15S
HILL CITY KS   CLOUDY    73  67  81 S3        30.13S
IMPERIAL NEB   PTSUNNY   68  63  84 S13       30.13S
MCCOOK NEB     CLOUDY    69  67  93 SE7       30.14R
AKRON CO       PTSUNNY   66  59  78 S13G24    30.16S
BURLINGTON CO  PTSUNNY   67  62  84 S15G22    30.16S
LIMON CO       CLOUDY    62  58  86 SE14      30.21R
$$

...UNOFFICIAL OBSERVATIONS...

CITY           SKY/WX    TMP DP  RH WIND       PRES   REMARKS
COLBY KS       PTSUNNY   70  68  94 S14G21    30.14F
GOVE KS          N/A     71  32  23 CALM        N/A
NORTON KS      MOSUNNY   72  66  83 SE7       30.12
SHARON SPRINGS   N/A     67  65  95 S10         N/A
WAKEENEY KS      N/A     71  64  78 MISG        N/A
KIT CARSON CO    N/A     67  62  84 MISG        N/A
YUMA CO          N/A     66  64  95 SE5         N/A
$$



USA.gov is the U.S. government's official web portal to all federal, state and local government web resources and services.